Weather in Koltsovo

Russia / Novosibirsk Oblast     54°56′23″N   83°11′21″E
temp.,
°C
wind,
m/s
gust,
m/s
humid.,
%
clouds,
%
prec.,
mm/h
press.,
hPa
HPBL,
m
3 march, wed
wed301:00−16ssw129899 0.1 101720
04:00−16ssw2297100 0.1 101739
07:00−19ssw2210092 0.1 101820
10:00−16ssw239596 0.1 1018150
13:00−12sw349195 0.1 1018330
16:00−11sw4692100 0.1 1019422
19:00−13ssw3396100 0.1 102051
22:00−13ssw51194100 0.1 1022282
4 march, thu
thu401:00−15ssw5129493 0.1 1022343
04:00−14s7149294 0.0 1021412
07:00−13s7149497 0.3 1021491
10:00−10ssw81590100 0.8 1020617
13:00−7ssw81491100 0.9 1020688
16:00−5ssw81494100 0.7 1018755
19:00−5ssw81690100 1.7 1017831
22:00−5ssw71688100 0.1 1017669
5 march, fri
fri501:00−7s71589100 0.1 1015504
04:00−7s71587100 0.0 1013515
07:00−8ssw71583100 0.0 1012530
10:00−7ssw81687100 0.0 1012690
13:00−4sw91595100 1.4 1012856
16:00−2wsw111580100 0.6 10131294
19:00−5sw71585100 0.6 1017743
22:00−7sw81591100 0.1 10171016
6 march, sat
sat601:00−7sw71592100 0.3 1018782
04:00−6sw61493100 0.2 1019727
07:00−6ssw81494100 0.4 1019658
10:00−5ssw91594100 1.8 1017847
13:00−4ssw101687100 2.5 1016926
16:00−4ssw101782100 0.0 1014929
19:00−4sw91784100 0.0 1012922
22:00−4ssw101793100 0.4 1011967
7 march, sun
sun701:00−4sw101789100 0.7 1011875
04:00−4sw91690100 0.1 1011775
07:00−5wsw71487100 0.5 1014766
10:00−9wsw6138669 0.0 1017533
13:00−8sw6118284 0.0 1018542
16:00−6sw5979100 0.0 1018541
19:00−6s368794 0.0 1017127
22:00−3s61395100 0.2 1015638